Tracking 27112 objects as of 26-Mar-2023
HD Live streaming from Space Station
objects crossing your sky now

SL-16 DEB

Track SL-16 DEB now!
10-day predictions


NORAD ID: 23409
Int'l Code: 1994-077F
Perigee: 840.1 km
Apogee: 975.2 km
Inclination: 70.9 °
Period: 103.0 minutes
Semi major axis: 7278 km
RCS: 0.6495 m2 (medium)
Launch date: November 24, 1994
Source: Commonwealth of Independent States (former USSR) (CIS)
Launch site: TYURATAM MISSILE AND SPACE COMPLEX (TTMTR)

Note: This is SATELLITE DEBRIS
Your satellite tracking list
Your tracking list is empty




NASA's NSSDC Master Catalog

Two Line Element Set (TLE):
1 23409U 94077F   23084.92849384  .00000412  00000-0  31145-3 0  9993
2 23409  70.8797 279.8075 0092868 213.2720 146.2534 13.98063430445269
Source of the keplerian elements: AFSPC